Home   Weather   Monterrey   Past weeks

Flag for Mexico Past Weather in Monterrey, Nuevo León, Mexico — Yesterday and Last 2 Weeks

Now
97 °F

Scattered clouds.


Feels Like: 99 °F
Forecast: 70 / 96 °F
Wind: 14 mph from Southeast

Location: Aerop. Internacional Monterrey - N. L.

Current Time: Jul 22, 2017 at 6:06:21 pm

Latest Report: Jul 22, 2017 at 5:40 pm


Visibility: 15 mi

Pressure: 29.88 "Hg (28.13 "Hg at 545m altitude)

Humidity: 34%

Dew Point: 64 °F

Location of MonterreyLocation

Past Weather in Monterrey — Graph

°F

Monterrey Temperature Yesterday

Maximum temperature yesterday: 99 °F (at 4:40 pm)
Minimum temperature yesterday: 75 °F (at 6:06 am)
Average temperature yesterday: 88 °F

High & Low Weather Summary for the Past Weeks

 TemperatureHumidityPressure
High99 °F (Jul 21, 4:40 pm)100% (Jul 13, 6:47 am)30.18 "Hg (Jul 13, 6:47 am)
Low68 °F (Jul 8, 7:40 am)23% (Jul 15, 5:42 pm)29.89 "Hg (Jul 22, 4:40 pm)
Average82 °F63%30.04 "Hg
* Reported Jul 7 4:34 pm — Jul 22 4:40 pm, Monterrey. Weather by CustomWeather, © 2017

Note: Actual official high and low records may vary slightly from our data, if they occured in-between our weather recording intervals... More about our weather records

Advertising

Monterrey Weather History for the Previous 24 Hours

Scroll right to see more
 ConditionsComfort  
Time TempWeatherWind HumidityBarometerVisibility
4:40 pm
Sat, Jul 22
97 °FScattered clouds.14 mph32%29.89 "Hg15 mi
3:40 pm95 °FScattered clouds.18 mph36%29.92 "Hg12 mi
2:41 pm93 °FPassing clouds.9 mph39%29.95 "Hg12 mi
1:40 pm91 °FPassing clouds.13 mph44%29.98 "Hg12 mi
12:41 pm90 °FPassing clouds.5 mph49%30.00 "Hg10 mi
11:40 am88 °FPassing clouds.5 mph52%30.01 "Hg10 mi
10:40 am86 °FPassing clouds.3 mph55%30.01 "Hg7 mi
9:40 am81 °FPassing clouds.3 mph70%30.02 "Hg4 mi
8:40 am79 °FPassing clouds.5 mph74%30.01 "Hg4 mi
7:40 am75 °FScattered clouds.7 mph83%30.00 "Hg4 mi
6:40 am77 °FOvercast.5 mph79%29.99 "Hg7 mi
5:40 am77 °FOvercast.6 mph79%29.97 "Hg7 mi
11:40 pm
Fri, Jul 21
82 °FClear.16 mph66%29.98 "Hg10 mi
9:40 pm88 °FClear.17 mph52%29.95 "Hg10 mi
8:41 pm93 °FClear.10 mph30%29.92 "Hg15 mi
7:40 pm97 °FSunny.18 mph27%29.91 "Hg15 mi
6:40 pm97 °FSunny.14 mph27%29.90 "Hg15 mi
Weather by CustomWeather, © 2017

See weather overviewHow to use our weather pages